Regional Weather Roundup
Issued by NWS Boston, MA

Home | Current Version | Previous Version | Text Only | Print | Product List | Glossary On
Versions: 1 2 3 4 5 6 7 8 9 10 11 12 13 14 15 16 17 18 19 20 21 22 23 24 25 26 27 28 29 30 31 32 33 34 35 36 37 38 39 40 41 42 43 44 45
000
ASUS41 KBOX 031510
RWRBOX

REGIONAL WEATHER ROUNDUP
NATIONAL WEATHER SERVICE TAUNTON MA
1100 AM EDT MON AUG 03 2015

NOTE:  "FAIR" INDICATES FEW OR NO CLOUDS BELOW 12,000 FEET WITH NO
SIGNIFICANT WEATHER AND/OR OBSTRUCTIONS TO VISIBILITY.  THE FOLLOWING
OBSERVATION LOCATIONS DO NOT REPORT PRESENT WEATHER...PROVINCETOWN...
SMITHFIELD...BLOCK ISLAND...KEENE...AND OXFORD.

MAZALL-031600-
EASTERN MASSACHUSETTS

CITY           SKY/WX    TMP DP  RH WIND       PRES   REMARKS
BOSTON         MOSUNNY   86  59  39 SW16G25   29.83F
BEVERLY        SUNNY     85  60  42 SW13G22   29.82F
LAWRENCE       SUNNY     85  63  47 SW16      29.83F
BEDFORD        SUNNY     86  60  41 S12G21    29.81F
BLUE HILL        N/A     84  58  40 SW17G28   29.85F
NORWOOD        MOSUNNY   86  61  42 S10G21    29.83F
MARSHFIELD     MOSUNNY   84  64  51 SW13G20   29.86S
PLYMOUTH       SUNNY     86  61  42 SW17G25   29.86F
TAUNTON        SUNNY     84  63  49 SW10G20   29.85F
NEW BEDFORD    SUNNY     84  65  52 SW16      29.86F
$$

MAZALL-031600-
CAPE COD AND THE ISLANDS

CITY           SKY/WX    TMP DP  RH WIND       PRES   REMARKS
FALMOUTH       SUNNY     84  66  54 W15       29.87F
HYANNIS        MOSUNNY   81  71  71 SW12      29.87F
CHATHAM        MOSUNNY   81  72  74 SW8G18    29.90F
PROVINCETOWN   SUNNY     81  66  61 SW14      29.87F
NANTUCKET      SUNNY     79  70  74 S10       29.91R
MARTHAS VNYRD  SUNNY     82  71  69 SW13      29.88F
$$

MAZALL-031600-
CENTRAL AND WESTERN MASSACHUSETTS

CITY           SKY/WX    TMP DP  RH WIND       PRES   REMARKS
WORCESTER      SUNNY     80  61  52 SW14G20   29.87S
FITCHBURG      SUNNY     84  61  45 SW14G26   29.82F
ORANGE         SUNNY     82  64  54 S13G18    29.81F
SPRINGFIELD    NOT AVBL
WESTFIELD      SUNNY     83  65  54 S12       29.81F
NORTH ADAMS    SUNNY     82  62  50 VRB7      29.79F
PITTSFIELD     SUNNY     79  62  56 S9G20     29.82S
$$

RIZALL-031600-
RHODE ISLAND

CITY           SKY/WX    TMP DP  RH WIND       PRES   REMARKS
PROVIDENCE     MOSUNNY   84  65  52 SW16      29.86F
NEWPORT        SUNNY     79  71  76 SW8G18    29.88F
BLOCK ISLAND     N/A     81  73  78 SW14      29.90R
SMITHFIELD     SUNNY     81  64  57 SW6       29.86F
WESTERLY       SUNNY     80  70  71 S13       29.88S
$$

CTZALL-031600-
CONNECTICUT

CITY           SKY/WX    TMP DP  RH WIND       PRES   REMARKS
BRADLEY INTL   MOSUNNY   84  62  47 S13       29.82S
HARTFORD       MOSUNNY   85  63  47 S14G21    29.82F
BRIDGEPORT     MOSUNNY   83  64  52 SW8       29.85S
DANBURY        MOSUNNY   81  59  47 S12       29.86S
GROTON         SUNNY     78  70  76 S7        29.86S
NEW HAVEN      MOSUNNY   80  66  62 S7        29.86S
CHESTER        NOT AVBL
MERIDEN        SUNNY     84  62  47 S16G22    29.84F
WILLIMANTIC    PTSUNNY   84  63  49 SW10      29.85S
$$

MEZ002-015-021-024-NHZ003-005-008-011-012-014-VTZ005-008-031600-
NORTHERN NEW ENGLAND

CITY           SKY/WX    TMP DP  RH WIND       PRES   REMARKS
PORTLAND ME    MOSUNNY   77  67  71 S12       29.81F
BANGOR ME      MOSUNNY   78  65  63 S12       29.82F
CONCORD NH     SUNNY     86  61  42 S12       29.79F
MANCHESTER NH  MOSUNNY   85  63  47 S12       29.79F
NASHUA NH      SUNNY     85  64  49 S8        29.81F
PORTSMOUTH NH  MOSUNNY   85  63  47 S12       29.79F
JAFFREY NH     SUNNY     81  62  52 SW12G23   29.84S
KEENE NH       SUNNY     82  61  47 SW15G22   29.80S
BURLINGTON VT  MOSUNNY   82  61  48 S16G24    29.70S
MT. WASHINGTON MOSUNNY   55  46  71 SW33G49     N/A
$$

NYZ052-076-031600-
EASTERN NEW YORK

CITY           SKY/WX    TMP DP  RH WIND       PRES   REMARKS
ALBANY         MOSUNNY   83  63  50 S18       29.73F
NEW YORK CITY  MOSUNNY   85  59  41 SW12      29.84S
$$

ANZALL-031600-
MARINE OBSERVATIONS

STATION/POSITION TIME  TEMP    WIND        PRES    VSBY  WAVE
                       AIR SEA DIR/SP/G                  HT/PER
                 (UTC) (F)     (DEG/KT/KT) (MB)    (MI)  (FT/S)
BOSTON BUOY      1450   73 70  160/  6/  8 1010.9F         2/ 6
BUZZARDS BAY     1400          210/ 14/ 15 1012.5F
NANTUCKET SOUND  1450   75 74  210/ 10/ 12 1011.9F         1
MASS BAY-STELLWA 1404   70 67  190/  6/  8   N/A    1 7/8  2/ 6
ISLE OF SHOALS   1400   71     180/ 16/ 16 1009.8F
S OF BLOCK IS    1408      75                N/A           3/ 8
$$

......................KEY.........................
  SKY/WX - SKY CONDITION/PRESENT WEATHER
  TMP    - TEMPERATURE IN FAHRENHEIT
  DWPT   - DEWPOINT IN FAHRENHEIT
  RH     - RELATIVE HUMIDITY IN PERCENT
  WIND   - DIRECTION AND SPEED IN MPH
  PRES   - MEAN SEA LEVEL PRESSURE IN INCHES OF HG
  WCI    - WIND CHILL INDEX
  VSB    - VISIBILITY IN MILES
  HX     - HEAT INDEX
  TC     - TEMPERATURE IN CELSIUS
  VRB    - VARIABLE WIND DIRECTION
  N/A    - NOT AVAILABLE



USA.gov is the U.S. government's official web portal to all federal, state and local government web resources and services.